Regional Weather Roundup
Issued by NWS Kansas City/Pleasant Hill, MO

Home | Current Version | Previous Version | Graphics & Text | Print | Product List | Glossary Off
Versions: 1 2 3 4 5 6 7 8 9 10 11 12 13 14 15 16 17 18 19 20 21 22 23 24 25 26 27 28

000
ASUS43 KEAX 300210
RWREAX

WEATHER ROUNDUP FOR EASTERN KANSAS AND NORTHWEST MISSOURI
NATIONAL WEATHER SERVICE KANSAS CITY/PLEASANT HILL MO
900 PM CDT FRI JUL 29 2016

KSZ040-057-103>105-MOZ028-029-037-043-300300-
...KANSAS CITY METROPOLITAN AREA...

CITY           SKY/WX    TMP DP  RH WIND       PRES   REMARKS
K.C. INTL      CLEAR     74  62  66 N5        29.98S
K.C. DOWNTOWN  CLEAR     79  63  57 N7        29.96R
LEES SUMMIT    CLEAR     76  63  64 N6        29.97S
OLATHE - IXD   CLEAR     73  66  78 N6        29.98R
OLATHE - OJC   CLEAR     78  61  55 N7        29.98R
LAWRENCE       CLEAR     72  66  81 N5        29.98R

$$

MOZ001>008-011>017-020>025-030>033-038>040-044>046-053-054-300300-
...NORTHERN AND CENTRAL MISSOURI...

CITY           SKY/WX    TMP DP  RH WIND       PRES   REMARKS
ST. JOSEPH     CLEAR     70  63  78 NW6       29.98R
MOSBY          CLEAR     73  64  73 CALM      29.97R
WHITEMAN AFB   PTCLDY    74  69  83 NE5       29.95S
CLINTON        CLEAR     73  70  88 CALM      29.96R
SEDALIA        CLEAR     75  67  76 N3        29.97S
WARSAW         NOT AVBL
CHILLICOTHE      N/A     73  64  73 CALM      29.98R
KIRKSVILLE     CLEAR     70  63  78 N6        29.98R

$$

MOZ041-047>049-056>058-063>065-088>090-097-300300-
...EASTERN AND SOUTHERN MISSOURI...

CITY           SKY/WX    TMP DP  RH WIND       PRES   REMARKS
ST. LOUIS INTL PTCLDY    79  67  66 N6        29.93R
SPIRIT OF STL  PTCLDY    77  68  73 CALM      29.91R
COLUMBIA       CLEAR     74  67  78 NW5       29.95S
JEFFERSON CITY CLEAR     77  67  71 CALM      29.93R
ROLLA          PTCLDY    74  70  87 NW5       29.94S
OSAGE BEACH    CLEAR     73  72  96 CALM      29.96R
SPRINGFIELD    CLEAR     77  69  76 E6        29.97R
BRANSON        PTCLDY    75  73  94 CALM      29.99R
JOPLIN         CLEAR     78  70  76 NE3       29.97R
WEST PLAINS    CLOUDY    72  69  90 SW3       29.99S

$$

IAZ060-094-KSZ022-034>040-054-083-096-NEZ052-066-093-300300-
...KANSAS...SOUTHEAST NEBRASKA AND IOWA...

CITY           SKY/WX    TMP DP  RH WIND       PRES   REMARKS
TOPEKA         CLEAR     76  65  68 NE5       29.98R
MANHATTAN      CLEAR     77  67  71 CALM      29.98R
EMPORIA        CLEAR     77  69  76 CALM      29.98R
CHANUTE        PTCLDY    79  70  74 NE3       29.96R
WICHITA        CLEAR     81  68  64 E9        29.96S
OMAHA          PTCLDY    74  62  66 NE5       30.01R
LINCOLN        CLEAR     73  62  68 NE6       30.02R
FALLS CITY     CLEAR     74  63  68 CALM      29.98S
LAMONI         CLOUDY    68  64  87 N8        29.99S
DES MOINES     MOCLDY    70  64  81 NW3       29.98F

$$





USA.gov is the U.S. government's official web portal to all federal, state and local government web resources and services.